Simultaneous Nadir Overpasses (SNOs) Predictions

Prediction of SNOs between METOP-B and NOAA-19 Satellite Orbit:

Table of predicted SNOs for the next 14.0 days since TLE Epoch: 9/21/2018
Index Date (METOP-B) Time (METOP-B) Lat,Lon (METOP-B) SZA (METOP-B ) Date (NOAA-19) Time (NOAA-19) Lat,Lon (NOAA-19) SZA (NOAA-19 ) Distance(km) Time Diff (sec)
1 09/23/2018 10:56:24 -78.87,-151.52 100.69 09/23/2018 10:55:15 -78.86,-154.08 100.82 54.84 69
2 09/23/2018 11:47:09 78.67, 14.55 79.08 09/23/2018 11:46:07 78.66, 14.69 79.06 3.16 62
3 09/23/2018 12:37:51 -78.66,-178.14 100.92 09/23/2018 12:37:10 -78.66,-178.08 100.93 1.51 41
4 09/23/2018 13:28:31 78.65, -10.88 79.08 09/23/2018 13:28:08 78.66, -10.80 79.09 1.76 23
5 09/23/2018 14:19:13 -78.65, 156.42 100.91 09/23/2018 14:19:11 -78.66, 156.43 100.90 0.82 2
6 09/23/2018 15:09:53 78.64, -36.32 79.09 09/23/2018 15:10:09 78.65, -36.30 79.11 1.97 16
7 09/23/2018 16:00:34 -78.63, 130.99 100.90 09/23/2018 16:01:11 -78.65, 130.94 100.88 2.45 37
8 09/23/2018 16:51:14 78.62, -61.75 79.10 09/23/2018 16:52:09 78.65, -61.79 79.14 3.54 55
9 09/23/2018 17:41:56 -78.62, 105.55 100.90 09/23/2018 17:43:11 -78.62, 105.70 100.87 3.19 75
10 10/04/2018 08:47:00 -79.04,-117.99 96.18 10/04/2018 08:45:57 -79.03,-122.67 96.42 99.08 63
11 10/04/2018 09:37:49 78.70, 47.06 83.39 10/04/2018 09:36:43 78.70, 47.09 83.38 1.02 66
12 10/04/2018 10:28:31 -78.70,-145.60 96.60 10/04/2018 10:27:48 -78.70,-145.65 96.61 1.00 43
13 10/04/2018 11:19:11 78.68, 21.63 83.39 10/04/2018 11:18:44 78.70, 21.60 83.41 2.32 27
14 10/04/2018 12:09:53 -78.68,-171.04 96.59 10/04/2018 12:09:49 -78.70,-171.14 96.59 2.65 4
15 10/04/2018 13:00:33 78.67, -3.81 83.40 10/04/2018 13:00:44 78.67, -3.64 83.41 3.65 11
16 10/04/2018 13:51:15 -78.67, 163.53 96.59 10/04/2018 13:51:49 -78.66, 163.62 96.58 2.12 34
17 10/04/2018 14:41:55 78.65, -29.25 83.41 10/04/2018 14:42:45 78.66, -29.13 83.44 2.87 50
18 10/04/2018 15:32:37 -78.65, 138.09 96.58 10/04/2018 15:33:50 -78.66, 138.13 96.56 1.05 73




NCC Satellite Simultaneous Nadir Overpasses (SNOs) Prediction Service
